Probability
77 77 71 81 84 87 94 100 94 87 81 77 74 77 77 68 65 71 81 90 90 97 100 100 100 100 100 100 100 100 100 100 100 100 100 100 100 100 100 97 97 90 94
87 84 87 87 90 87 87 74 68 74 71 74 74 77 71 68 71 77 71 87 94 94 97 100 100 100 100 100 100 100 100 100 100 100 100 100 100 100 100 100 100 94 90
81 77 71 74 77 68 77 81 61 58 52 48 58 68 65 74 77 74 68 74 81 81 94 100 100 100 100 97 97 100 100 100 100 100 100 97 100 100 100 100 100 94 87
55 58 61 61 71 61 58 55 55 42 39 39 35 52 52 61 65 74 68 71 68 65 81 97 100 100 100 97 97 97 100 100 100 100 100 97 97 97 97 97 97 94 87
42 42 55 58 42 42 48 23 32 35 35 35 32 35 42 48 55 45 65 71 71 71 68 77 97 100 100 100 94 94 97 97 94 90 90 94 90 94 90 87 90 87 61
39 39 48 39 32 35 39 29 26 35 32 35 6 10 26 26 39 35 42 39 52 55 55 65 77 77 97 100 100 94 94 97 94 90 90 90 90 84 77 74 71 61 52
26 32 26 32 32 29 32 26 23 16 23 26 16 16 16 16 16 19 32 32 32 42 52 61 65 65 61 81 90 97 90 90 87 94 94 94 90 81 65 55 48 39 39
29 13 45 29 39 35 26 23 19 10 10 6 10 3 3 0 13 3 19 19 13 26 42 26 48 55 52 42 29 74 94 90 90 90 94 90 81 65 58 52 32 13 16
29 35 29 29 35 26 19 23 16 13 6 3 6 3 0 0 0 0 10 13 26 29 23 23 39 48 45 45 52 29 77 84 90 94 87 90 74 58 45 48 39 13 10
35 39 32 39 35 29 29 16 6 6 3 3 3 3 0 0 0 0 0 3 3 16 16 6 13 19 32 35 32 23 35 45 74 87 84 84 84 42 32 42 58 39 13
42 39 39 35 35 29 23 10 10 10 6 6 6 3 0 0 0 0 0 0 0 3 6 23 29 23 19 26 39 10 10 10 19 61 77 81 77 61 48 48 61 74 58
35 29 23 35 26 19 16 10 6 6 6 6 6 3 3 3 3 0 0 0 0 0 0 6 16 29 23 13 6 6 3 0 0 3 26 52 58 55 52 48 58 71 74
16 10 6 6 3 3 3 3 3 0 6 3 6 3 0 3 0 0 0 0 0 0 0 6 10 16 6 13 13 0 3 0 0 0 0 10 26 35 29 32 48 65 74
3 0 0 0 3 3 3 3 3 3 0 0 0 0 0 0 0 0 0 0 0 0 0 0 10 13 6 10 10 0 3 0 0 0 0 0 6 6 13 10 6 19 29
0 0 0 0 0 0 0 0 3 3 0 0 0 0 0 0 0 0 0 3 0 0 0 0 0 6 6 10 0 3 6 0 0 0 0 0 0 0 0 0 0 0 3
0 0 0 0 0 0 0 0 0 0 0 0 0 0 0 0 3 0 3 0 0 0 0 0 0 0 0 0 0 0 3 0 0 0 0 0 0 0 0 0 0 0 0
0 0 0 0 0 0 0 0 0 0 0 0 0 0 0 0 0 0 0 0 0 0 0 0 0 0 0 0 0 0 0 0 0 0 0 0 0 0 0 0 0 0 0
3 3 3 0 0 0 0 0 0 0 0 0 0 0 0 0 0 0 0 0 0 0 0 0 0 3 0 0 3 0 0 0 0 0 0 0 0 0 0 0 0 0 0
3 3 3 0 0 0 0 0 0 0 0 0 0 0 0 0 0 0 0 0 0 0 0 0 0 0 0 0 3 0 0 0 0 0 0 0 0 0 0 0 0 0 0
3 3 3 0 0 0 0 0 0 0 0 0 0 0 0 0 0 0 0 0 0 0 0 0 0 0 0 0 0 0 0 0 0 0 0 0 0 0 0 0 0 0 0
3 3 3 0 0 0 0 0 0 0 0 0 0 0 0 0 0 0 0 0 0 0 0 0 0 0 0 0 0 0 0 0 0 0 0 0 0 0 0 0 0 0 0
6 3 3 0 0 0 0 0 0 0 0 0 0 0 0 0 0 0 0 0 0 0 0 0 0 0 0 0 0 0 0 0 0 0 0 0 0 0 0 0 0 0 0
10 6 3 0 0 0 0 0 0 0 0 0 0 0 0 0 0 0 0 0 0 0 0 0 0 0 0 0 0 0 0 0 0 0 0 0 0 0 0 0 0 0 0
13 16 13 3 6 0 0 0 0 0 0 0 0 0 0 0 0 0 0 0 0 0 0 0 0 0 0 0 0 0 0 0 0 0 0 0 0 0 0 0 0 0 0
19 13 10 10 6 6 0 0 0 0 0 0 0 0 0 0 0 0 0 0 0 0 0 0 0 0 0 0 0 0 0 0 0 0 0 0 0 0 0 0 0 0 0
16 10 6 13 6 6 0 0 0 0 0 0 0 0 0 0 0 0 0 0 0 0 0 0 0 0 0 0 0 0 0 0 0 0 0 0 0 0 0 0 0 0 0
Height
5877 5875 5874 5874 5873 5874 5874 5874 5874 5874 5875 5875 5875 5876 5876 5877 5878 5879 5881 5881 5881 5884 5887 5889 5891 5893 5895 5897 5900 5902 5904 5907 5909 5911 5913 5914 5916 5918 5920 5922 5923 5925 5927
5873 5872 5871 5871 5870 5870 5870 5870 5870 5870 5870 5870 5871 5871 5872 5873 5874 5874 5876 5877 5878 5880 5882 5884 5886 5889 5891 5893 5895 5898 5901 5903 5906 5908 5910 5912 5914 5916 5918 5920 5922 5924 5926
5869 5868 5867 5867 5866 5866 5865 5865 5865 5865 5865 5865 5866 5866 5867 5868 5868 5869 5870 5872 5874 5875 5877 5879 5881 5883 5886 5888 5891 5893 5896 5899 5902 5904 5907 5909 5911 5914 5916 5918 5920 5922 5924
5865 5864 5863 5862 5862 5861 5861 5860 5860 5860 5860 5860 5860 5861 5861 5862 5862 5863 5865 5866 5868 5870 5871 5873 5875 5877 5880 5882 5886 5888 5891 5894 5897 5900 5903 5905 5908 5910 5913 5915 5918 5920 5922
5862 5860 5859 5858 5857 5856 5856 5855 5854 5854 5854 5854 5854 5855 5855 5856 5856 5857 5859 5860 5862 5864 5865 5866 5868 5870 5873 5876 5879 5883 5886 5889 5892 5895 5898 5901 5904 5907 5909 5912 5915 5917 5919
5858 5856 5855 5854 5852 5851 5850 5849 5848 5848 5848 5847 5848 5848 5848 5849 5849 5851 5852 5853 5855 5856 5858 5860 5861 5863 5866 5869 5872 5876 5879 5883 5886 5889 5893 5896 5899 5902 5905 5908 5911 5914 5916
5853 5851 5850 5848 5847 5845 5844 5843 5842 5841 5841 5840 5840 5841 5841 5841 5842 5843 5844 5846 5848 5849 5851 5852 5854 5856 5859 5862 5865 5869 5873 5876 5879 5883 5886 5890 5894 5897 5901 5904 5907 5910 5912
5848 5846 5844 5842 5840 5839 5838 5837 5835 5834 5834 5833 5833 5833 5834 5834 5834 5836 5837 5838 5840 5841 5843 5845 5847 5849 5852 5855 5858 5862 5865 5869 5872 5876 5879 5884 5888 5891 5895 5899 5902 5905 5908
5843 5840 5838 5836 5834 5833 5831 5830 5829 5828 5827 5826 5826 5826 5826 5827 5827 5828 5828 5830 5831 5833 5835 5837 5839 5841 5844 5847 5851 5854 5858 5861 5865 5868 5872 5876 5881 5885 5889 5893 5896 5900 5903
5838 5835 5833 5831 5828 5826 5825 5823 5822 5821 5820 5819 5818 5818 5818 5818 5819 5820 5820 5821 5823 5825 5826 5828 5831 5834 5836 5839 5843 5846 5850 5853 5857 5860 5864 5869 5873 5878 5882 5886 5890 5894 5897
5833 5830 5828 5825 5823 5821 5818 5817 5815 5814 5812 5812 5811 5810 5810 5810 5810 5811 5812 5813 5814 5816 5817 5819 5822 5825 5826 5830 5834 5838 5841 5845 5849 5852 5856 5861 5866 5870 5874 5879 5883 5887 5891
5828 5825 5823 5820 5817 5815 5812 5810 5808 5807 5805 5804 5803 5802 5802 5802 5802 5802 5803 5804 5805 5807 5808 5810 5813 5816 5818 5821 5825 5829 5833 5836 5840 5844 5848 5853 5858 5862 5867 5871 5875 5880 5884
5822 5820 5817 5814 5811 5809 5806 5804 5802 5800 5798 5796 5795 5794 5793 5793 5793 5793 5794 5795 5796 5798 5799 5801 5803 5806 5809 5812 5816 5820 5824 5828 5831 5835 5840 5844 5849 5854 5859 5863 5867 5872 5876
5817 5814 5811 5808 5805 5802 5799 5797 5794 5792 5790 5788 5786 5785 5784 5784 5784 5784 5785 5785 5787 5788 5789 5791 5793 5797 5800 5803 5807 5810 5814 5818 5822 5826 5831 5835 5840 5845 5850 5855 5859 5864 5868
5812 5809 5806 5802 5799 5796 5792 5789 5786 5784 5781 5779 5777 5776 5775 5774 5774 5774 5775 5775 5777 5778 5780 5781 5783 5786 5790 5793 5796 5800 5804 5808 5813 5817 5821 5826 5831 5836 5841 5846 5850 5855 5860
5807 5803 5799 5796 5792 5788 5785 5781 5778 5775 5772 5770 5768 5766 5765 5764 5764 5764 5764 5765 5766 5768 5770 5771 5773 5776 5779 5783 5786 5790 5794 5798 5803 5807 5812 5816 5821 5826 5831 5836 5842 5847 5852
5801 5797 5793 5789 5784 5780 5776 5772 5769 5766 5763 5760 5758 5756 5755 5754 5753 5753 5753 5754 5755 5757 5759 5761 5763 5765 5769 5772 5776 5779 5784 5788 5793 5797 5802 5807 5812 5817 5822 5827 5833 5838 5843
5795 5791 5786 5781 5776 5772 5767 5763 5759 5756 5753 5750 5747 5745 5744 5743 5742 5742 5742 5743 5744 5745 5747 5750 5752 5755 5758 5761 5765 5769 5773 5777 5782 5787 5792 5797 5802 5807 5812 5818 5823 5829 5835
5788 5783 5778 5773 5768 5763 5758 5753 5749 5745 5742 5739 5736 5734 5732 5731 5730 5730 5730 5731 5732 5733 5735 5738 5741 5743 5747 5750 5754 5758 5762 5767 5772 5777 5781 5786 5792 5797 5803 5808 5814 5820 5826
5781 5775 5770 5764 5759 5753 5748 5744 5739 5735 5731 5728 5725 5722 5720 5719 5718 5718 5718 5718 5720 5721 5723 5726 5729 5732 5735 5738 5742 5746 5751 5756 5761 5766 5771 5776 5781 5787 5793 5799 5805 5811 5817
5773 5767 5761 5755 5749 5743 5738 5733 5728 5724 5720 5716 5713 5711 5709 5707 5706 5706 5706 5706 5707 5708 5710 5713 5716 5719 5723 5726 5730 5734 5739 5745 5750 5755 5760 5766 5771 5777 5782 5789 5795 5802 5808
5765 5758 5752 5745 5739 5733 5728 5723 5718 5713 5709 5706 5702 5699 5697 5695 5694 5694 5693 5693 5694 5696 5698 5700 5703 5707 5710 5714 5718 5722 5727 5733 5739 5745 5750 5755 5761 5766 5773 5779 5785 5792 5798
5756 5749 5743 5736 5729 5723 5717 5712 5707 5703 5699 5695 5691 5688 5686 5684 5682 5682 5681 5681 5682 5683 5685 5687 5690 5694 5697 5701 5706 5710 5715 5720 5727 5733 5739 5745 5751 5757 5763 5769 5775 5782 5789
5747 5740 5733 5726 5720 5713 5708 5702 5697 5693 5688 5684 5680 5677 5674 5672 5670 5669 5669 5669 5669 5670 5671 5674 5677 5680 5683 5687 5692 5698 5703 5709 5716 5722 5728 5734 5740 5747 5753 5759 5765 5772 5779
5738 5731 5724 5717 5710 5704 5698 5692 5687 5682 5678 5674 5670 5666 5663 5661 5659 5657 5656 5656 5656 5656 5657 5660 5663 5666 5670 5674 5679 5685 5690 5697 5704 5710 5717 5723 5730 5736 5743 5749 5755 5762 5769
5728 5721 5714 5707 5701 5695 5688 5683 5677 5672 5668 5664 5660 5656 5652 5650 5647 5645 5644 5643 5643 5643 5644 5647 5649 5653 5656 5661 5666 5672 5678 5685 5692 5699 5705 5712 5719 5725 5733 5739 5746 5753 5760
Wind_Speed
19 20 19 18 18 18 18 18 19 20 19 19 19 20 20 20 20 20 20 20 20 20 21 23 22 22 21 22 22 21 20 19 18 17 16 15 14 13 12 12 11 10 9
19 19 19 18 19 19 18 19 20 21 20 20 20 20 21 22 22 22 22 22 22 22 22 23 24 25 24 23 24 24 23 22 21 20 19 18 17 16 15 14 13 12 11
20 19 19 20 20 20 21 21 21 21 21 21 22 22 22 22 23 24 23 23 24 24 25 25 26 27 27 26 25 25 26 25 24 23 22 20 20 19 17 16 15 14 13
20 20 20 21 21 22 22 23 23 22 23 24 24 24 24 24 25 25 25 24 25 25 26 27 27 28 29 29 28 27 27 27 27 26 25 24 22 21 20 19 18 17 15
21 22 23 22 23 23 24 24 24 24 25 25 26 26 26 26 26 26 27 27 27 26 26 28 28 29 30 31 31 30 29 29 29 29 27 26 25 24 23 21 20 19 18
23 24 25 25 25 26 26 26 26 26 27 27 27 27 27 27 27 28 29 29 28 28 28 28 28 29 30 32 33 32 32 31 31 31 30 29 28 27 26 25 23 21 20
25 26 27 27 27 27 27 27 27 27 27 28 28 28 28 28 28 28 29 30 30 30 30 30 29 29 30 32 34 34 33 33 33 33 33 32 31 30 28 27 26 24 23
26 27 27 27 27 27 27 27 27 27 27 27 27 28 28 29 30 29 30 31 31 31 31 32 31 31 31 33 34 35 35 35 35 35 34 34 32 32 31 30 29 28 26
26 26 26 27 27 27 27 27 27 27 27 28 27 28 28 29 30 30 31 31 32 32 32 33 34 33 32 32 33 35 36 36 36 36 35 35 34 34 33 32 31 30 29
25 26 26 27 27 27 27 27 27 27 27 27 27 28 29 29 30 30 32 32 32 32 33 33 34 34 34 34 34 35 36 37 37 37 37 36 36 36 35 35 33 32 31
26 26 26 26 26 26 27 27 27 27 27 28 28 28 29 29 30 31 31 32 32 32 33 34 35 34 35 34 34 35 36 37 38 38 38 38 37 37 37 37 35 34 33
26 26 26 26 26 27 27 27 27 28 28 29 29 29 29 30 30 31 32 33 33 33 34 34 35 36 35 35 36 36 37 37 37 38 39 39 38 38 38 38 37 36 35
27 26 26 26 27 27 28 28 28 29 30 30 31 31 30 31 31 31 32 33 34 34 35 35 35 36 37 38 38 37 38 38 38 39 39 40 40 39 39 39 38 37 36
27 27 28 28 29 29 30 30 30 31 31 32 32 32 32 32 32 32 32 33 33 34 35 35 36 37 38 38 38 38 38 37 38 39 40 40 41 41 40 40 38 38 38
28 29 30 30 31 31 32 32 32 33 33 33 33 34 34 34 34 34 34 34 34 33 34 35 36 37 38 38 39 40 39 39 39 39 40 41 41 41 41 41 40 39 39
30 31 31 31 32 33 33 34 34 34 34 34 34 35 35 35 36 36 35 35 35 35 34 36 36 37 37 38 39 40 40 40 41 40 40 41 41 41 42 42 42 41 40
31 32 32 33 34 34 35 35 35 35 35 35 36 36 36 36 36 36 37 37 37 37 36 36 37 37 37 38 39 40 41 41 42 42 42 41 41 42 42 42 42 41 40
33 34 34 35 36 36 36 36 36 36 37 37 37 37 37 37 37 37 37 37 38 38 38 38 38 38 38 38 38 40 40 41 42 43 43 43 42 42 42 41 42 42 40
35 36 36 37 37 38 38 38 38 38 38 38 38 38 38 38 38 38 38 38 38 38 38 39 39 39 39 39 39 39 40 40 41 43 43 43 43 43 43 42 42 42 41
37 38 39 39 39 39 39 39 39 39 39 39 38 38 38 37 37 38 38 39 39 38 39 39 39 40 39 39 40 41 41 40 41 41 42 43 43 44 43 43 43 43 43
39 40 40 40 41 41 40 39 39 39 39 38 38 38 38 38 37 38 38 38 38 39 39 40 40 39 40 40 41 42 42 42 41 40 41 42 42 43 44 43 43 43 43
41 41 42 42 42 42 41 40 39 38 37 37 36 37 37 37 37 37 38 38 39 39 40 40 41 40 40 41 41 43 43 43 43 42 42 42 42 43 44 44 43 43 43
42 43 44 43 42 42 41 40 39 38 36 36 36 35 35 36 36 36 37 38 39 40 40 41 41 41 41 41 42 43 44 44 43 43 43 42 42 42 43 45 44 44 44
44 45 44 43 42 42 41 40 39 37 36 36 35 35 34 35 35 36 36 37 38 39 40 41 42 42 43 42 42 43 44 44 44 44 44 43 42 42 43 43 44 45 45
46 46 45 44 43 41 41 40 39 37 36 35 34 34 34 34 36 36 36 36 37 38 39 40 40 41 42 43 43 43 44 45 45 45 45 44 44 43 43 43 44 46 46
47 46 46 44 42 41 41 40 39 38 36 34 34 34 34 34 35 35 36 36 36 37 39 39 39 40 41 42 43 43 44 45 45 45 46 46 45 45 44 44 44 46 46
Wind_Direction
299 295 288 286 284 285 282 279 278 270 270 267 267 265 263 263 261 257 256 254 251 252 250 246 243 242 241 239 238 236 235 233 231 230 229 227 224 222 219 217 217 217 216
301 299 293 288 287 285 285 285 281 277 274 272 269 266 262 260 259 260 258 256 254 252 250 248 246 243 241 240 238 237 235 235 233 232 232 231 228 225 223 222 221 221 221
301 301 297 293 290 287 287 287 287 283 278 278 274 270 266 263 260 260 259 256 254 253 251 249 248 245 242 240 239 238 237 235 234 234 233 232 230 228 226 225 224 224 224
303 302 300 296 294 294 293 290 288 284 280 278 276 273 269 267 262 259 258 257 255 254 252 251 249 246 244 240 240 239 238 236 236 235 235 235 233 231 229 228 227 227 226
303 301 301 299 297 294 293 290 288 285 281 279 276 274 273 270 266 261 259 257 257 256 255 251 250 248 244 240 239 239 239 238 237 237 238 236 234 232 231 230 230 230 230
302 301 300 298 295 293 292 290 288 285 281 279 276 274 272 271 267 263 260 259 258 258 257 253 250 249 245 241 239 238 239 239 238 238 238 237 234 234 233 231 231 231 231
302 301 299 298 296 294 292 290 287 284 282 280 277 274 272 271 268 264 261 260 259 258 256 253 249 247 247 243 240 239 239 240 239 239 238 236 234 234 234 233 233 233 233
304 302 301 299 297 295 294 292 288 285 284 281 279 275 273 271 269 267 264 261 259 257 255 253 250 248 247 244 241 239 240 240 239 239 239 237 235 234 235 235 234 234 234
306 305 304 302 299 297 295 293 289 287 285 283 280 277 273 270 269 268 265 262 260 257 256 253 250 249 248 246 242 240 240 241 240 239 238 236 235 235 234 235 235 234 234
309 308 306 304 302 299 296 294 291 288 286 284 282 279 276 273 269 267 266 264 262 260 258 254 251 249 247 245 244 242 240 240 239 239 238 236 235 236 235 235 235 235 234
312 311 309 307 305 303 300 297 294 291 289 286 284 281 278 275 272 268 266 265 263 261 258 255 252 249 247 244 244 242 241 240 240 239 237 236 236 236 235 235 235 235 234
314 313 311 309 307 305 303 300 297 295 292 289 286 283 280 277 274 270 267 265 264 262 259 256 252 248 247 245 244 242 241 240 240 239 237 236 236 235 234 235 235 235 234
316 315 313 311 309 307 304 302 299 296 294 291 288 285 281 278 275 272 269 266 264 262 260 256 253 248 246 245 243 241 241 241 240 240 238 236 236 235 235 235 235 235 234
319 318 315 313 310 308 306 303 301 298 295 291 288 285 282 278 275 273 271 268 265 262 260 256 253 250 247 245 242 241 240 240 241 240 238 237 236 235 235 234 234 234 234
320 318 316 313 310 308 306 304 301 298 295 291 287 284 281 279 276 273 271 268 265 262 259 258 255 251 248 246 243 242 241 240 240 240 239 237 235 234 234 234 234 234 234
319 318 316 313 311 309 306 303 301 298 295 292 288 285 282 279 276 274 271 268 265 262 260 257 256 254 249 246 245 243 241 240 240 239 239 237 236 235 234 234 233 233 233
320 318 316 315 313 310 308 304 301 298 294 291 288 285 281 278 276 274 271 268 265 262 260 257 256 254 251 248 245 243 241 240 239 239 238 238 237 236 233 232 232 232 231
320 318 316 315 313 311 309 306 302 299 296 292 289 286 282 278 275 273 271 268 265 262 259 257 255 254 251 248 246 243 241 239 239 239 239 237 237 236 233 232 230 230 230
321 319 318 316 314 312 309 307 304 301 298 295 291 287 283 279 276 273 271 268 265 263 260 257 254 253 251 248 246 244 242 240 239 238 238 237 236 234 232 231 230 229 229
323 321 319 317 315 313 311 308 305 302 299 296 292 287 284 280 276 273 271 268 265 263 260 258 255 253 251 249 246 244 243 241 239 238 236 235 234 233 231 230 229 228 228
323 322 321 318 316 314 312 309 306 303 301 297 292 288 284 280 277 274 271 268 265 262 260 258 255 253 250 248 246 244 243 241 239 238 236 234 234 233 229 228 228 229 227
324 323 322 319 317 315 313 310 308 305 303 299 295 290 286 282 278 275 271 267 264 262 260 257 255 253 251 249 246 244 243 241 239 237 236 235 233 232 229 227 226 226 224
325 324 323 320 318 316 314 312 309 307 304 300 297 292 287 283 280 276 272 268 265 263 260 257 255 253 251 249 246 243 241 239 238 236 235 235 234 231 230 229 226 224 223
325 324 323 321 318 316 315 313 310 308 305 301 297 294 290 285 281 277 273 269 266 263 261 258 255 252 250 248 246 243 240 238 236 234 233 233 232 230 229 228 225 224 223
324 324 324 321 319 316 315 314 312 309 306 302 299 296 292 288 284 279 275 271 267 263 260 258 255 252 249 246 244 241 239 237 234 232 231 230 230 229 229 229 226 223 222
324 323 323 321 319 317 316 314 313 310 307 304 300 298 294 290 286 281 276 272 267 263 260 257 254 251 247 245 242 240 237 236 233 231 229 228 228 228 227 228 226 223 222